Weather History for Fort Myers Airport, FL

Change the Weather History Date:

Tuesday, January 8, 2013

  Actual Average Record
Temperature  
Mean Temperature 73 °F -  
Max Temperature 84 °F 76 °F 86 °F (1989)
Min Temperature 62 °F 55 °F 37 °F (1958)
Cooling Degree Days 8    
Growing Degree Days 23 (Base 50)    
Moisture  
Dew Point 65 °F    
Average Humidity 87    
Maximum Humidity 100    
Minimum Humidity 51    
Precipitation  
Precipitation 0.00 in - - ()
Sea Level Pressure  
Sea Level Pressure 30.14 in    
Wind  
Wind Speed 6 mph (ENE)    
Max Wind Speed 15 mph    
Max Gust Speed 17 mph    
Visibility 7 miles    
Events Fog    
Averages and records for this station are not official NWS values.
T = Trace of Precipitation, MM = Missing Value Source: NWS Daily Summary

Daily Weather History Graph

Daily Weather History Graph

Search for Another Location

Airport:

Trip Planner

Search our weather history database for the weather conditions in past years. The results will help you decide how hot, cold, wet, or windy it might be!

Date:

Astronomy

Jan. 08, 2013 Rise Set
Actual Time 7:16 AM EST 5:51 PM EST
Civil Twilight 6:51 AM EST 6:16 PM EST
Nautical Twilight 6:22 AM EST 6:45 PM EST
Astronomical Twilight 5:54 AM EST 7:13 PM EST
Moon 3:50 AM EST (1/8) 2:51 PM EST (1/8)
Length of Visible Light 11h 24m
Length of Day
10h 34m
Waning Crescent, 14% of the Moon is Illuminated
Jan 8
Waning Crescent
Jan 11
New
Jan 18
First Quarter
Jan 26
Full
Feb 3
Last Quarter

Hourly Weather History & Observations

Time (EST) Temp. Heat Index Dew Point Humidity Pressure Visibility Wind Dir Wind Speed Gust Speed Precip Events Conditions
12:07 AM 64.4 °F - 62.6 °F 94% 30.13 in 10.0 mi NE 5.8 mph - N/A   Scattered Clouds
12:53 AM 64.0 °F - 62.1 °F 93% 30.12 in 10.0 mi NE 4.6 mph - N/A   Partly Cloudy
1:53 AM 64.0 °F - 62.1 °F 93% 30.12 in 10.0 mi NNE 4.6 mph - N/A   Clear
2:39 AM 64.4 °F - 62.6 °F 94% 30.11 in 10.0 mi NE 4.6 mph - N/A   Mostly Cloudy
2:53 AM 64.0 °F - 62.1 °F 93% 30.10 in 10.0 mi NE 4.6 mph - N/A   Mostly Cloudy
3:00 AM 64.4 °F - 62.6 °F 94% 30.11 in 10.0 mi ENE 4.6 mph - N/A   Mostly Cloudy
3:07 AM 64.4 °F - 62.6 °F 94% 30.11 in 9.0 mi ENE 3.5 mph - N/A   Scattered Clouds
3:53 AM 63.0 °F - 62.1 °F 97% 30.10 in 8.0 mi ENE 3.5 mph - N/A   Scattered Clouds
4:21 AM 62.6 °F - 62.6 °F 100% 30.10 in 8.0 mi ENE 4.6 mph - N/A   Mostly Cloudy
4:53 AM 63.0 °F - 62.1 °F 97% 30.10 in 7.0 mi NE 4.6 mph - N/A   Overcast
5:53 AM 64.0 °F - 63.0 °F 96% 30.12 in 3.0 mi NNE 3.5 mph - N/A   Overcast
6:14 AM 64.4 °F - 62.6 °F 94% 30.13 in 1.5 mi NE 5.8 mph - N/A   Overcast
6:25 AM 64.4 °F - 62.6 °F 94% 30.14 in 0.5 mi NE 5.8 mph - N/A Fog Fog
6:38 AM 64.4 °F - 62.6 °F 94% 30.14 in 0.2 mi ENE 5.8 mph - N/A Fog Fog
6:53 AM 64.0 °F - 64.0 °F 100% 30.14 in 0.2 mi ENE 6.9 mph - N/A Fog Fog
7:53 AM 64.9 °F - 64.9 °F 100% 30.16 in 0.2 mi ENE 5.8 mph - N/A Fog Fog
8:27 AM 66.2 °F - 64.4 °F 94% 30.18 in 0.5 mi ENE 5.8 mph - N/A Fog Fog
8:41 AM 66.2 °F - 66.2 °F 100% 30.19 in 1.5 mi ENE 5.8 mph - N/A   Overcast
8:47 AM 66.2 °F - 66.2 °F 100% 30.19 in 3.0 mi ENE 5.8 mph - N/A   Overcast
8:53 AM 66.9 °F - 66.0 °F 97% 30.19 in 1.0 mi ENE 5.8 mph - N/A   Overcast
9:00 AM 66.2 °F - 66.2 °F 100% 30.20 in 5.0 mi ENE 6.9 mph - N/A   Overcast
9:07 AM 66.2 °F - 66.2 °F 100% 30.20 in 2.0 mi ENE 6.9 mph - N/A   Overcast
9:53 AM 70.0 °F - 68.0 °F 93% 30.20 in 2.0 mi East 4.6 mph - N/A   Overcast
10:00 AM 71.6 °F - 68.0 °F 88% 30.21 in 5.0 mi East 6.9 mph - N/A   Mostly Cloudy
10:13 AM 73.4 °F - 69.8 °F 88% 30.20 in 10.0 mi East 6.9 mph - N/A   Partly Cloudy
10:53 AM 77.0 °F - 69.1 °F 76% 30.19 in 10.0 mi ESE 10.4 mph - N/A   Clear
11:53 AM 80.1 °F 82.7 °F 68.0 °F 67% 30.16 in 10.0 mi ESE 10.4 mph 17.3 mph N/A   Partly Cloudy
12:53 PM 82.0 °F 84.1 °F 66.0 °F 58% 30.14 in 10.0 mi SE 11.5 mph - N/A   Scattered Clouds
1:53 PM 82.0 °F 83.8 °F 64.9 °F 56% 30.11 in 10.0 mi ESE 9.2 mph - N/A   Scattered Clouds
2:53 PM 84.0 °F 85.4 °F 64.0 °F 51% 30.10 in 10.0 mi East 9.2 mph - N/A   Scattered Clouds
3:53 PM 82.9 °F 85.0 °F 66.0 °F 56% 30.10 in 10.0 mi East 11.5 mph - N/A   Scattered Clouds
4:53 PM 81.0 °F 83.3 °F 66.9 °F 62% 30.11 in 10.0 mi East 15.0 mph - N/A   Scattered Clouds
5:53 PM 77.0 °F - 68.0 °F 74% 30.12 in 10.0 mi East 8.1 mph - 0.00 in   Scattered Clouds
6:53 PM 73.9 °F - 68.0 °F 82% 30.13 in 10.0 mi East 9.2 mph - N/A   Mostly Cloudy
7:53 PM 73.9 °F - 69.1 °F 85% 30.14 in 10.0 mi East 6.9 mph - N/A   Overcast
8:53 PM 73.9 °F - 68.0 °F 82% 30.15 in 10.0 mi East 6.9 mph - N/A   Overcast
9:53 PM 73.0 °F - 68.0 °F 84% 30.15 in 10.0 mi East 9.2 mph - N/A   Partly Cloudy
10:53 PM 71.1 °F - 68.0 °F 90% 30.17 in 10.0 mi East 5.8 mph - N/A   Clear